Wind_Speed
15 15 13 13 12 12 11 10 9 10 9 9 9 9 9 10 11 13 17 7 16 6 11 10 8 14 10 7 10 9 3 1 5 5 4 4 21 14 18 31 24 6 34 35 40
14 14 15 13 13 11 11 9 10 9 10 10 9 9 9 10 12 16 8 9 14 13 10 13 13 17 7 8 8 5 2 5 6 3 6 13 11 18 20 25 16 29 31 41 41
14 13 13 13 12 12 11 10 9 10 9 9 8 7 8 8 9 0 1 13 18 14 9 15 11 14 9 9 9 10 6 7 8 16 14 16 17 13 23 6 34 36 42 40 41
14 13 13 12 11 10 11 11 10 10 9 8 7 7 6 5 3 3 5 5 15 16 13 18 14 8 5 7 13 3 3 6 2 6 16 8 11 10 14 20 35 38 39 42 40
15 13 12 12 11 12 10 10 12 10 8 6 5 5 5 5 9 2 3 7 13 15 16 18 14 11 6 4 9 6 9 6 7 12 14 13 12 10 17 30 32 34 34 38 39
17 14 12 12 11 10 10 11 9 9 6 5 5 4 6 3 0 1 4 5 13 15 18 21 12 7 9 10 5 14 14 12 12 9 12 12 16 8 20 22 27 32 33 38 37
17 14 12 11 10 9 9 8 8 5 4 5 5 5 10 10 5 1 7 5 10 14 20 21 15 9 5 8 5 21 6 4 9 6 4 24 3 11 19 21 33 29 29 33 38
17 13 11 9 8 7 6 6 5 3 2 4 5 5 8 7 10 6 1 6 12 14 20 16 10 16 17 7 5 6 4 5 2 5 12 0 4 11 17 20 24 27 25 22 41
18 14 10 8 7 5 4 4 3 0 2 3 2 3 7 9 13 8 9 7 12 15 19 11 10 12 3 3 4 1 6 6 5 14 4 2 3 4 16 20 21 22 25 19 39
19 15 10 7 5 4 3 5 4 1 3 4 4 5 6 7 11 13 11 9 12 11 10 10 6 2 4 4 5 4 4 3 8 16 11 4 4 10 13 22 22 22 19 23 35
18 16 10 5 5 2 3 5 3 3 8 8 4 8 10 4 9 15 17 14 10 7 3 3 4 5 10 5 6 2 8 3 7 9 9 4 6 9 10 18 24 25 21 23 34
15 15 9 4 3 2 7 7 5 7 9 17 18 24 21 7 9 13 16 16 12 5 2 6 5 10 7 7 7 5 7 4 11 8 3 5 7 5 8 17 28 27 12 26 30
16 15 10 6 4 5 8 5 7 15 4 12 12 13 13 12 14 14 15 7 5 3 4 6 11 8 5 9 8 9 6 6 7 10 12 6 3 2 1 21 22 27 12 7 41
12 12 9 7 7 7 7 3 9 15 4 6 3 4 7 21 6 17 16 11 2 8 5 6 17 10 7 10 7 9 6 12 18 6 5 6 3 5 7 9 24 26 18 6 34
11 11 10 9 10 13 9 13 15 3 3 5 5 2 11 11 4 14 21 16 8 4 6 9 3 7 8 12 9 11 7 14 15 4 7 5 3 3 13 10 13 23 20 9 13
12 10 11 11 10 5 14 15 8 5 3 3 10 7 3 8 8 6 23 14 9 3 2 8 20 6 11 12 12 11 14 10 5 4 1 9 4 4 10 13 13 20 21 15 10
13 14 12 14 9 7 15 15 5 3 4 4 4 3 8 6 3 6 7 5 4 2 5 7 7 5 7 8 3 7 6 2 4 3 6 10 5 5 8 10 14 20 33 22 12
13 15 14 9 7 12 15 4 4 2 4 3 2 6 7 5 3 7 8 4 4 4 1 3 8 3 4 7 8 4 7 6 4 4 5 5 6 1 3 5 13 10 7 10 17
18 15 14 10 7 10 3 4 6 4 4 5 7 7 5 4 5 6 6 3 4 3 7 3 5 5 3 5 8 5 2 3 5 2 4 5 3 5 5 6 6 5 7 4 2
17 11 12 12 8 7 4 4 3 5 4 4 4 5 5 8 6 5 5 2 8 5 4 0 4 3 7 3 3 8 4 4 3 4 4 2 8 7 10 9 7 9 6 6 2
10 7 12 12 12 3 2 6 5 13 9 1 3 6 6 4 4 4 3 4 5 8 8 2 2 8 0 2 4 3 3 5 3 4 5 4 0 5 13 12 10 8 10 14 14
4 2 9 7 4 2 3 4 2 6 2 4 4 3 5 2 3 3 3 3 13 11 5 2 3 1 4 9 4 4 4 5 4 4 3 4 3 7 13 15 16 9 7 11 12
10 6 2 7 2 3 4 2 2 6 6 4 2 2 4 4 3 4 3 10 13 5 1 3 4 4 10 8 9 5 3 5 3 3 1 5 4 8 15 16 22 11 10 14 12
4 3 5 4 2 4 3 3 3 6 5 5 2 2 4 1 2 2 3 6 11 1 1 5 3 5 5 6 5 8 6 3 5 4 3 2 13 11 13 10 20 17 16 15 15
3 3 5 3 5 4 5 3 4 4 8 6 7 6 3 3 3 3 5 7 1 3 5 5 4 4 4 9 10 7 5 11 5 7 5 14 15 17 15 14 20 20 20 20 17
7 6 9 7 10 5 5 5 8 3 5 4 8 11 10 5 3 3 2 4 2 6 3 3 2 3 2 13 12 5 9 10 11 10 11 14 14 18 24 25 24 21 21 19 19
12 7 5 7 8 5 3 4 5 5 12 16 9 7 9 6 3 3 2 8 2 4 4 4 3 3 3 5 8 5 6 3 5 6 20 11 10 22 19 23 25 23 22 23 21
Wind_Direction
330 329 329 325 322 318 315 309 305 297 289 284 285 285 285 281 275 262 253 227 197 148 160 163 188 176 187 197 199 205 96 176 259 106 100 76 113 116 118 133 142 148 142 147 156
326 324 324 325 321 317 313 313 309 303 297 286 282 282 284 287 283 269 270 228 196 191 187 189 178 171 187 210 202 151 130 197 224 97 179 172 134 129 146 145 120 124 145 150 157
328 322 321 321 320 318 315 312 308 305 296 289 283 278 282 297 302 31 72 215 195 192 189 190 177 184 215 216 196 181 181 202 227 240 235 156 136 145 149 140 155 141 145 147 153
331 324 320 314 312 314 313 310 308 303 293 281 276 274 275 280 204 114 50 178 181 182 185 189 206 220 217 195 200 136 210 172 67 143 179 135 119 124 179 175 159 146 148 153 155
335 327 322 317 313 312 308 308 309 300 287 266 251 266 273 253 244 109 37 176 186 180 190 192 208 218 207 199 210 197 171 194 123 145 119 119 107 129 138 146 161 147 157 162 163
334 330 323 319 311 309 310 310 309 299 277 244 225 234 244 270 155 182 315 212 202 189 191 195 206 223 273 247 177 248 148 140 131 127 140 128 123 125 159 150 165 163 159 172 171
340 332 326 320 311 310 311 315 310 292 263 223 218 217 243 222 130 318 340 233 196 199 192 195 209 254 328 325 323 136 97 47 106 155 117 112 47 148 160 158 168 174 174 176 163
353 348 340 327 315 316 323 324 317 287 237 218 221 231 249 169 226 227 182 194 188 191 192 203 231 268 262 286 79 146 88 111 98 232 171 146 163 165 152 152 175 177 187 171 169
358 355 352 337 329 334 344 357 28 69 176 198 178 265 262 177 206 196 208 193 166 179 202 240 285 265 298 55 19 329 160 136 145 237 213 195 152 176 178 169 172 174 186 161 160
360 357 354 351 352 346 50 30 57 77 194 183 228 306 239 213 196 184 191 158 158 167 244 262 246 88 36 85 215 191 92 184 168 191 193 182 175 136 177 171 173 184 187 155 158
357 356 357 11 2 340 311 325 335 265 232 231 239 246 301 232 188 187 202 196 191 181 188 234 78 203 238 206 229 323 324 136 115 157 167 179 128 143 164 157 169 213 219 170 167
352 355 355 358 360 327 317 293 342 334 299 294 278 260 278 248 208 206 194 190 196 193 200 13 231 228 233 253 256 253 218 137 104 44 141 126 96 83 172 176 178 201 251 173 164
344 355 359 352 346 310 304 308 358 322 309 300 267 259 257 197 194 188 196 191 134 156 196 164 240 225 235 267 276 261 178 206 141 107 47 110 127 118 18 163 181 204 255 197 171
341 347 349 323 312 293 322 352 323 314 46 280 196 265 219 172 179 187 199 199 211 196 200 220 255 243 229 249 214 257 209 178 150 152 161 234 214 192 183 166 194 215 254 221 177
333 327 325 315 292 293 350 335 334 231 27 185 199 123 171 163 123 196 196 203 228 199 113 239 256 224 238 233 210 244 152 145 136 94 120 212 108 267 161 194 199 219 251 233 186
322 315 315 315 298 323 324 334 331 54 255 290 180 170 101 228 236 205 190 203 224 236 262 249 274 197 224 250 222 125 99 62 53 97 230 187 150 201 184 196 184 207 251 237 189
319 302 292 284 251 302 317 332 47 124 320 8 6 162 189 213 217 136 180 203 148 86 294 317 275 247 221 257 358 156 122 69 32 33 234 132 139 247 201 162 178 191 213 229 245
317 308 287 258 234 277 313 48 82 274 287 273 305 301 194 171 252 168 141 203 244 128 277 248 322 224 224 185 199 162 153 158 147 184 243 115 201 227 66 109 115 136 142 228 265
320 310 285 209 234 273 280 52 205 234 231 328 336 48 353 13 88 72 356 290 188 154 183 220 262 310 236 244 148 264 93 160 140 32 122 124 66 63 97 67 96 141 126 63 68
330 313 253 188 228 272 58 258 233 228 304 59 72 39 19 3 44 61 8 334 345 40 207 75 291 286 300 124 19 136 171 54 3 148 217 254 160 155 169 141 111 77 80 114 114
338 324 166 192 208 204 186 234 241 271 240 203 70 43 27 88 65 16 245 317 7 329 26 29 90 295 346 97 152 20 73 72 111 135 168 141 200 285 164 136 109 85 109 122 150
346 349 147 206 121 219 188 202 327 13 273 74 101 85 77 44 80 333 33 137 296 325 344 340 141 358 260 287 325 147 140 113 121 272 105 105 82 80 110 120 123 130 122 115 109
331 279 181 212 164 254 268 258 95 34 16 46 93 148 224 134 122 221 192 197 253 287 193 331 3 26 349 358 4 9 360 140 138 103 94 115 150 128 121 133 124 119 113 119 113
342 349 341 157 35 163 131 203 90 33 39 45 53 102 88 83 50 226 1 184 208 302 111 86 75 114 151 218 240 294 338 339 108 102 127 143 136 147 139 139 122 126 128 121 113
344 303 347 313 351 43 65 82 116 59 3 24 357 19 155 83 55 43 16 0 237 222 141 117 136 125 252 312 334 252 337 327 159 161 132 170 147 146 146 140 128 129 131 122 114
14 5 339 332 343 49 54 20 97 59 70 358 70 47 68 100 180 189 180 80 286 319 22 15 218 117 4 320 331 342 356 22 91 85 70 120 120 139 141 133 133 136 136 125 121
19 345 339 340 339 79 306 76 53 87 35 84 104 68 26 340 293 223 259 114 235 94 6 72 96 82 227 334 323 17 340 17 44 139 140 151 159 146 144 143 145 145 137 130 130
Height
1513 1511 1509 1507 1505 1504 1503 1503 1502 1501 1500 1499 1499 1500 1500 1499 1499 1498 1497 1500 1503 1505 1507 1511 1513 1516 1521 1524 1523 1522 1532 1535 1530 1519 1525 1521 1514 1524 1525 1528 1534 1535 1541 1546 1551
1511 1509 1507 1506 1504 1503 1502 1501 1500 1499 1498 1497 1497 1497 1497 1496 1495 1494 1496 1497 1500 1503 1506 1509 1511 1515 1519 1520 1522 1523 1531 1525 1519 1521 1520 1520 1520 1523 1526 1533 1535 1539 1546 1550 1552
1509 1507 1505 1504 1503 1501 1500 1499 1498 1497 1496 1495 1495 1495 1495 1494 1494 1491 1491 1493 1497 1501 1505 1508 1512 1514 1517 1516 1517 1519 1524 1514 1513 1515 1521 1518 1522 1523 1526 1533 1532 1535 1544 1551 1554
1507 1505 1504 1501 1500 1499 1498 1497 1496 1494 1493 1493 1493 1493 1494 1494 1495 1489 1490 1491 1495 1499 1503 1506 1510 1513 1512 1512 1511 1515 1512 1513 1510 1511 1517 1519 1521 1525 1527 1530 1536 1540 1545 1550 1554
1506 1504 1502 1500 1498 1497 1495 1494 1494 1492 1491 1491 1491 1492 1493 1493 1488 1489 1490 1491 1493 1496 1499 1504 1507 1509 1508 1505 1509 1510 1510 1512 1511 1515 1517 1520 1522 1524 1529 1533 1539 1544 1548 1553 1555
1503 1501 1499 1498 1496 1494 1493 1492 1491 1490 1489 1490 1490 1491 1492 1492 1487 1487 1488 1489 1491 1493 1497 1501 1502 1507 1505 1504 1507 1503 1507 1511 1512 1518 1519 1521 1528 1527 1535 1535 1539 1543 1547 1551 1554
1501 1498 1497 1496 1494 1493 1492 1490 1489 1488 1489 1489 1489 1489 1489 1485 1486 1487 1487 1488 1489 1492 1495 1499 1502 1506 1503 1502 1503 1504 1513 1514 1516 1522 1523 1521 1533 1529 1532 1535 1537 1541 1545 1550 1555
1500 1496 1495 1494 1493 1492 1490 1489 1488 1488 1488 1489 1488 1488 1483 1483 1485 1486 1487 1487 1489 1492 1495 1499 1503 1505 1504 1501 1504 1508 1517 1525 1522 1527 1524 1524 1539 1532 1531 1534 1538 1541 1544 1549 1553
1500 1496 1494 1493 1492 1491 1490 1489 1487 1488 1488 1489 1489 1489 1481 1480 1481 1484 1485 1486 1489 1492 1495 1498 1503 1501 1499 1504 1513 1510 1528 1528 1529 1523 1525 1527 1536 1532 1532 1534 1535 1540 1544 1549 1554
1500 1496 1494 1492 1492 1492 1490 1490 1488 1488 1488 1489 1489 1491 1480 1478 1480 1482 1484 1487 1489 1493 1496 1497 1498 1499 1502 1512 1530 1518 1518 1515 1516 1515 1523 1527 1531 1531 1533 1533 1536 1538 1542 1549 1554
1499 1496 1493 1492 1491 1492 1491 1491 1492 1491 1488 1483 1482 1479 1478 1478 1480 1482 1485 1488 1490 1493 1497 1494 1502 1508 1502 1505 1505 1509 1510 1506 1509 1516 1522 1528 1532 1533 1533 1536 1539 1540 1543 1550 1552
1497 1495 1493 1492 1491 1491 1491 1489 1487 1490 1483 1477 1477 1476 1476 1479 1481 1481 1485 1489 1490 1496 1494 1501 1507 1496 1496 1499 1503 1508 1512 1514 1519 1522 1524 1531 1538 1538 1537 1536 1537 1539 1545 1549 1551
1499 1496 1495 1493 1491 1491 1489 1487 1487 1486 1484 1472 1471 1472 1472 1476 1478 1479 1482 1483 1486 1493 1494 1506 1493 1492 1497 1499 1504 1505 1511 1514 1512 1522 1526 1531 1538 1540 1540 1540 1542 1544 1546 1548 1546
1498 1496 1495 1493 1495 1490 1487 1486 1486 1486 1495 1479 1471 1470 1468 1471 1477 1479 1481 1484 1487 1492 1494 1498 1486 1492 1496 1500 1499 1513 1492 1495 1508 1515 1542 1526 1547 1538 1537 1540 1543 1542 1545 1544 1546
1498 1497 1494 1493 1491 1489 1488 1485 1483 1484 1510 1469 1468 1468 1471 1472 1474 1478 1479 1484 1487 1487 1493 1495 1486 1490 1494 1490 1490 1494 1484 1494 1504 1518 1524 1533 1538 1533 1531 1536 1536 1539 1541 1543 1548
1495 1494 1493 1491 1490 1487 1486 1482 1482 1499 1510 1473 1464 1467 1471 1471 1472 1475 1479 1482 1483 1486 1487 1487 1480 1483 1482 1477 1479 1484 1495 1507 1514 1524 1541 1518 1533 1535 1528 1524 1529 1537 1538 1543 1546
1493 1491 1490 1489 1487 1486 1484 1482 1497 1504 1475 1477 1473 1467 1469 1473 1473 1475 1480 1484 1492 1499 1501 1486 1478 1472 1474 1481 1476 1481 1502 1538 1541 1539 1543 1520 1527 1525 1520 1518 1523 1529 1532 1539 1542
1488 1488 1486 1485 1484 1484 1484 1485 1499 1484 1482 1472 1471 1467 1474 1468 1472 1472 1481 1488 1484 1489 1501 1505 1505 1472 1468 1474 1481 1480 1490 1526 1536 1547 1532 1507 1527 1515 1518 1521 1527 1533 1537 1537 1541
1484 1482 1482 1481 1482 1484 1485 1501 1498 1486 1478 1476 1471 1478 1478 1470 1474 1479 1492 1489 1481 1483 1500 1499 1493 1468 1466 1465 1468 1480 1490 1483 1508 1505 1522 1526 1527 1524 1524 1526 1530 1536 1537 1538 1542
1480 1477 1476 1479 1480 1483 1488 1493 1485 1479 1474 1475 1484 1481 1489 1489 1489 1488 1496 1487 1487 1482 1479 1483 1497 1475 1467 1464 1467 1472 1475 1501 1503 1525 1524 1529 1527 1531 1530 1533 1537 1535 1536 1541 1535
1477 1475 1473 1476 1479 1483 1494 1490 1479 1472 1474 1475 1480 1488 1490 1490 1497 1500 1497 1487 1484 1484 1480 1482 1493 1487 1471 1477 1481 1482 1489 1493 1501 1510 1528 1538 1532 1519 1524 1531 1538 1539 1541 1543 1545
1478 1477 1472 1474 1479 1480 1485 1478 1475 1473 1473 1475 1480 1483 1486 1490 1497 1498 1494 1486 1485 1488 1490 1486 1496 1504 1489 1475 1469 1473 1483 1495 1516 1510 1519 1529 1535 1528 1529 1534 1537 1542 1542 1542 1544
1480 1475 1471 1473 1483 1484 1476 1475 1476 1476 1477 1478 1481 1480 1479 1488 1497 1494 1488 1484 1485 1490 1490 1488 1504 1517 1503 1487 1477 1486 1480 1485 1495 1503 1513 1532 1537 1534 1534 1536 1530 1542 1543 1543 1543
1480 1479 1472 1472 1473 1473 1476 1479 1479 1477 1478 1478 1480 1480 1484 1490 1488 1493 1488 1485 1488 1489 1486 1487 1505 1513 1527 1519 1510 1504 1488 1485 1493 1510 1513 1521 1526 1532 1536 1538 1531 1540 1543 1544 1544
1484 1480 1479 1480 1475 1473 1473 1477 1482 1484 1481 1481 1482 1484 1485 1495 1494 1496 1491 1490 1487 1486 1485 1489 1503 1501 1503 1500 1496 1491 1485 1483 1485 1493 1504 1517 1515 1524 1531 1533 1535 1541 1545 1545 1546
1486 1485 1480 1477 1475 1474 1479 1483 1484 1485 1486 1491 1491 1489 1488 1495 1494 1498 1494 1496 1496 1488 1487 1490 1501 1501 1507 1498 1497 1494 1488 1485 1481 1492 1504 1513 1523 1522 1528 1533 1538 1544 1547 1548 1548
1488 1487 1485 1483 1479 1481 1484 1483 1487 1484 1490 1489 1491 1492 1494 1493 1491 1490 1490 1488 1492 1492 1496 1498 1504 1513 1514 1509 1504 1509 1499 1490 1489 1490 1500 1514 1512 1520 1527 1532 1538 1544 1547 1548 1551